This is the latest recevied weather packets stored in our database for station/object KQ4WWD. If no packets are shown the sender has not sent any weather packets the latest 10 day(s).
| Time | Temp. | Humidity | Pressure | Rain* | Wind** | Luminosity | Snow |
|---|---|---|---|---|---|---|---|
| 1788280988 | 31.67° C | 76% | 1016.8 hPa | 0 mm | - | 188 W/m² | - |
| 1788280683 | 31.67° C | 74% | 1016.8 hPa | 0 mm | - | 209 W/m² | - |
| 1788280383 | 31.67° C | 73% | 1017 hPa | 0 mm | - | 321 W/m² | - |
| 1788280078 | 31.67° C | 74% | 1016.8 hPa | 0 mm | - | 258 W/m² | - |
| 1788279777 | 31.67° C | 73% | 1017.1 hPa | 0 mm | - | 845 W/m² | - |
| 1788279476 | 31.67° C | 75% | 1016.9 hPa | 0 mm | - | 211 W/m² | - |
| 1788279170 | 32.22° C | 74% | 1017 hPa | 0 mm | - | 224 W/m² | - |
| 1788278866 | 32.22° C | 74% | 1017.3 hPa | 0 mm | - | 859 W/m² | - |
| 1788278562 | 31.67° C | 75% | 1017.3 hPa | 0 mm | - | 732 W/m² | - |
| 1788278261 | 31.67° C | 75% | 1017.2 hPa | 0 mm | - | 171 W/m² | - |
| 1788277956 | 31.67° C | 73% | 1017.3 hPa | 0 mm | - | 787 W/m² | - |
| 1788277652 | 31.67° C | 75% | 1017.3 hPa | 0 mm | - | 749 W/m² | - |
| 1788277346 | 31.67° C | 76% | 1017.3 hPa | 0 mm | - | 744 W/m² | - |
| 1788277042 | 31.67° C | 77% | 1017.5 hPa | 0 mm | - | 728 W/m² | - |
| 1788276741 | 31.11° C | 78% | 1017.4 hPa | 0 mm | - | 748 W/m² | - |
| 1788276441 | 30.56° C | 79% | 1017.3 hPa | 0 mm | - | 760 W/m² | - |
| 1788276140 | 30.56° C | 80% | 1017.6 hPa | 0 mm | - | 764 W/m² | - |
| 1788275835 | 30.56° C | 80% | 1017.4 hPa | 0 mm | - | 768 W/m² | - |
| 1788275535 | 30.56° C | 80% | 1017.5 hPa | 0 mm | - | 790 W/m² | - |
| 1788275234 | 30.56° C | 80% | 1017.4 hPa | 0 mm | - | 776 W/m² | - |
| 1788274933 | 30.56° C | 80% | 1017.5 hPa | 0 mm | - | 654 W/m² | - |
| 1788274631 | 30° C | 82% | 1017.5 hPa | 0 mm | - | 749 W/m² | - |
| 1788274325 | 30° C | 82% | 1017.5 hPa | 0 mm | - | 766 W/m² | - |
| 1788274021 | 29.44° C | 84% | 1017.4 hPa | 0 mm | - | 648 W/m² | - |
| 1788273715 | 29.44° C | 84% | 1017.5 hPa | 0 mm | - | 720 W/m² | - |
* Rain latest hour (hover to see other rain measurements)
** Current wind speed in m/s (hover to see current wind gust speed)